,,Stat5,,Stat1,,Stat2,,Stat3,,Stat4,,Wind1,,Wind1,
time,status,PA1M_AVG,status,PR1M_SUM,status,RH1M_AVG,status,SR1M_AVG,status,TA1M_AVG,status,W1dAve1m,status,W1sAve1m,
2000-06-06, 00:00:01,VALID,915.459,VALID,0,VALID,89.7677,VALID,0.0509425,VALID,20.9447,VALID,185,VALID,1.94451,
2000-06-06, 00:01:00,VALID,915.469,VALID,0,VALID,89.9419,VALID,0,VALID,20.9213,VALID,181,VALID,1.54911,
2000-06-06, 00:02:00,VALID,915.474,VALID,0,VALID,90.1313,VALID,0.0339617,VALID,20.8987,VALID,187,VALID,1.50947,
2000-06-06, 00:03:00,VALID,915.477,VALID,0,VALID,90.3869,VALID,0.0169808,VALID,20.8666,VALID,191,VALID,1.67525,
2000-06-06, 00:04:00,VALID,915.463,VALID,0,VALID,90.4327,VALID,0.0339617,VALID,20.8214,VALID,200,VALID,1.70095,
2000-06-06, 00:05:00,VALID,915.446,VALID,0,VALID,90.2966,VALID,0,VALID,20.8017,VALID,189,VALID,1.37911,
2000-06-06, 00:06:00,VALID,915.432,VALID,0,VALID,90.2445,VALID,0,VALID,20.7858,VALID,176,VALID,1.34122,
2000-06-06, 00:07:00,VALID,915.444,VALID,0,VALID,90.0169,VALID,0,VALID,20.796,VALID,181,VALID,1.87411,
2000-06-06, 00:08:00,VALID,915.447,VALID,0,VALID,89.9724,VALID,0,VALID,20.798,VALID,176,VALID,1.36493,
2000-06-06, 00:09:00,VALID,915.438,VALID,0,VALID,89.9431,VALID,0.0169808,VALID,20.8152,VALID,182,VALID,1.4791,
2000-06-06, 00:10:00,VALID,915.445,VALID,0,VALID,89.7664,VALID,0,VALID,20.8149,VALID,192,VALID,1.2794,
2000-06-06, 00:11:00,VALID,915.451,VALID,0,VALID,89.3824,VALID,0,VALID,20.7987,VALID,196,VALID,1.20735,
2000-06-06, 00:12:00,VALID,915.444,VALID,0,VALID,89.0428,VALID,0.0509425,VALID,20.8181,VALID,192,VALID,1.91049,
2000-06-06, 00:13:00,VALID,915.461,VALID,0,VALID,88.8114,VALID,0.0169808,VALID,20.8698,VALID,185,VALID,1.97877,
2000-06-06, 00:14:00,VALID,915.462,VALID,0,VALID,87.475,VALID,0,VALID,20.9275,VALID,197,VALID,2.61553,
2000-06-06, 00:15:00,VALID,915.461,VALID,0,VALID,86.6789,VALID,0.0679233,VALID,21.0732,VALID,210,VALID,1.76402,
2000-06-06, 00:16:00,VALID,915.439,VALID,0,VALID,86.3877,VALID,0.0169808,VALID,21.1736,VALID,194,VALID,1.7916,
2000-06-06, 00:17:00,VALID,915.458,VALID,0,VALID,86.2898,VALID,0,VALID,21.1989,VALID,189,VALID,1.63471,
2000-06-06, 00:18:00,VALID,915.468,VALID,0,VALID,86.4526,VALID,0.0339617,VALID,21.193,VALID,187,VALID,1.34607,
2000-06-06, 00:19:00,VALID,915.457,VALID,0,VALID,86.548,VALID,0.0169808,VALID,21.1601,VALID,180,VALID,2.10786,
2000-06-06, 00:20:00,VALID,915.465,VALID,0,VALID,86.6764,VALID,0.0339617,VALID,21.1478,VALID,194,VALID,1.16366,
2000-06-06, 00:21:00,VALID,915.464,VALID,0,VALID,86.7336,VALID,0.0169808,VALID,21.1211,VALID,190,VALID,1.96727,
2000-06-06, 00:22:00,VALID,915.478,VALID,0,VALID,86.7272,VALID,0.0339617,VALID,21.1187,VALID,190,VALID,1.65536,
2000-06-06, 00:23:00,VALID,915.485,VALID,0,VALID,86.6306,VALID,0.0169808,VALID,21.1286,VALID,186,VALID,2.03289,
2000-06-06, 00:24:00,VALID,915.499,VALID,0,VALID,86.6815,VALID,-0.0169808,VALID,21.1259,VALID,204,VALID,1.90182,
2000-06-06, 00:25:00,VALID,915.501,VALID,0,VALID,86.6535,VALID,-0.101885,VALID,21.123,VALID,221,VALID,1.34067,
2000-06-06, 00:26:00,VALID,915.489,VALID,0,VALID,86.5276,VALID,-0.101885,VALID,21.1197,VALID,215,VALID,1.28294,
2000-06-06, 00:27:00,VALID,915.496,VALID,0,VALID,86.6408,VALID,-0.101885,VALID,21.1033,VALID,180,VALID,1.54621,
2000-06-06, 00:28:00,VALID,915.521,VALID,0,VALID,86.7082,VALID,-0.101885,VALID,21.0643,VALID,181,VALID,1.97236,
2000-06-06, 00:29:00,VALID,915.533,VALID,0,VALID,86.5416,VALID,-0.101885,VALID,21.0648,VALID,186,VALID,1.64228,
2000-06-06, 00:30:00,VALID,915.532,VALID,0,VALID,86.4284,VALID,-0.0849042,VALID,21.0877,VALID,184,VALID,1.40097,
2000-06-06, 00:31:00,VALID,915.53,VALID,0,VALID,86.2237,VALID,-0.0509425,VALID,21.0844,VALID,192,VALID,1.62162,
2000-06-06, 00:32:00,VALID,915.517,VALID,0,VALID,86.1054,VALID,-0.101885,VALID,21.0842,VALID,191,VALID,1.43117,
2000-06-06, 00:33:00,VALID,915.515,VALID,0,VALID,86.0571,VALID,-0.101885,VALID,21.1038,VALID,185,VALID,1.67441,
2000-06-06, 00:34:00,VALID,915.497,VALID,0,VALID,85.2255,VALID,-0.0679233,VALID,21.123,VALID,205,VALID,1.7487,
2000-06-06, 00:35:00,VALID,915.49,VALID,0,VALID,84.3417,VALID,-0.0679233,VALID,21.1679,VALID,197,VALID,1.53065,
2000-06-06, 00:36:00,VALID,915.478,VALID,0,VALID,85.0856,VALID,-0.0849042,VALID,21.2361,VALID,188,VALID,1.46917,
2000-06-06, 00:37:00,VALID,915.468,VALID,0,VALID,85.0487,VALID,-0.101885,VALID,21.2364,VALID,196,VALID,1.53616,
2000-06-06, 00:38:00,VALID,915.449,VALID,0,VALID,84.591,VALID,-0.0849042,VALID,21.2296,VALID,185,VALID,1.18503,
2000-06-06, 00:39:00,VALID,915.431,VALID,0,VALID,84.8809,VALID,0,VALID,21.2256,VALID,183,VALID,1.58636,
2000-06-06, 00:40:00,VALID,915.415,VALID,0,VALID,84.8656,VALID,0.0169808,VALID,21.2154,VALID,179,VALID,1.62315,
2000-06-06, 00:41:00,VALID,915.379,VALID,0,VALID,84.7537,VALID,0.0339617,VALID,21.2054,VALID,185,VALID,1.51563,
2000-06-06, 00:42:00,VALID,915.369,VALID,0,VALID,84.7982,VALID,0.0509425,VALID,21.2113,VALID,170,VALID,1.61027,
2000-06-06, 00:43:00,VALID,915.366,VALID,0,VALID,85.2865,VALID,0.0169808,VALID,21.1949,VALID,176,VALID,1.20032,
2000-06-06, 00:44:00,VALID,915.355,VALID,0,VALID,84.975,VALID,0.0339617,VALID,21.1666,VALID,178,VALID,1.40104,
2000-06-06, 00:45:00,VALID,915.336,VALID,0,VALID,85.1072,VALID,0.0339617,VALID,21.1698,VALID,172,VALID,2.19669,
2000-06-06, 00:46:00,VALID,915.324,VALID,0,VALID,85.0233,VALID,0.0509425,VALID,21.1663,VALID,198,VALID,1.87141,
2000-06-06, 00:47:00,VALID,915.31,VALID,0,VALID,84.9991,VALID,0.0509425,VALID,21.1725,VALID,190,VALID,1.70397,
2000-06-06, 00:48:00,VALID,915.332,VALID,0,VALID,85.0729,VALID,0.0509425,VALID,21.1601,VALID,172,VALID,1.75992,
2000-06-06, 00:49:00,VALID,915.344,VALID,0,VALID,85.1924,VALID,0.0679233,VALID,21.1208,VALID,175,VALID,1.17144,
2000-06-06, 00:50:00,VALID,915.365,VALID,0,VALID,84.989,VALID,0.0169808,VALID,21.1114,VALID,184,VALID,1.52204,
2000-06-06, 00:51:00,VALID,915.361,VALID,0,VALID,85.0767,VALID,0.0169808,VALID,21.1343,VALID,159,VALID,1.81778,
2000-06-06, 00:52:00,VALID,915.37,VALID,0,VALID,85.2051,VALID,0.0339617,VALID,21.1437,VALID,196,VALID,1.61429,
2000-06-06, 00:53:00,VALID,915.365,VALID,0,VALID,85.4811,VALID,0.0509425,VALID,21.1109,VALID,199,VALID,1.28475,
2000-06-06, 00:54:00,VALID,915.379,VALID,0,VALID,85.4378,VALID,0.0339617,VALID,21.0788,VALID,214,VALID,1.73459,
2000-06-06, 00:55:00,VALID,915.376,VALID,0,VALID,85.1288,VALID,0.0169808,VALID,21.0597,VALID,207,VALID,1.44675,
2000-06-06, 00:56:00,VALID,915.404,VALID,0,VALID,85.6413,VALID,0,VALID,21.0602,VALID,187,VALID,1.12141,
2000-06-06, 00:57:00,VALID,915.411,VALID,0,VALID,85.2026,VALID,0.0339617,VALID,21.015,VALID,206,VALID,1.58728,
2000-06-06, 00:58:00,VALID,915.405,VALID,0,VALID,86.1576,VALID,0.0339617,VALID,20.9951,VALID,150,VALID,1.4355,
2000-06-06, 00:59:00,VALID,915.441,VALID,0,VALID,86.2453,VALID,0,VALID,20.9439,VALID,185,VALID,1.32576,
2000-06-06, 01:00:00,VALID,915.431,VALID,0,VALID,86.2606,VALID,0,VALID,20.9178,VALID,168,VALID,1.42096,
2000-06-06, 01:01:00,VALID,915.436,VALID,0,VALID,86.4462,VALID,0.0169808,VALID,20.9081,VALID,175,VALID,1.58045,
2000-06-06, 01:02:00,VALID,915.448,VALID,0,VALID,86.7819,VALID,0.0679233,VALID,20.8952,VALID,159,VALID,1.23332,
2000-06-06, 01:03:00,VALID,915.446,VALID,0,VALID,86.9447,VALID,0.0679233,VALID,20.8526,VALID,179,VALID,1.20207,
2000-06-06, 01:04:00,VALID,915.424,VALID,0,VALID,86.9676,VALID,0,VALID,20.83,VALID,181,VALID,1.42925,
2000-06-06, 01:05:00,VALID,915.415,VALID,0,VALID,86.9065,VALID,0,VALID,20.8303,VALID,181,VALID,1.42768,
2000-06-06, 01:06:00,VALID,915.424,VALID,0,VALID,86.9778,VALID,0.0169808,VALID,20.8405,VALID,177,VALID,1.69193,
2000-06-06, 01:07:00,VALID,915.422,VALID,0,VALID,87.2931,VALID,0.0339617,VALID,20.8179,VALID,176,VALID,1.47321,
2000-06-06, 01:08:00,VALID,915.43,VALID,0,VALID,86.7463,VALID,-0.0169808,VALID,20.8176,VALID,209,VALID,1.59272,
2000-06-06, 01:09:00,VALID,915.411,VALID,0,VALID,85.7087,VALID,0.0169808,VALID,20.876,VALID,194,VALID,1.8125,
2000-06-06, 01:10:00,VALID,915.433,VALID,0,VALID,85.6337,VALID,0,VALID,20.9792,VALID,169,VALID,1.15419,
2000-06-06, 01:11:00,VALID,915.405,VALID,0,VALID,85.6922,VALID,0.0169808,VALID,21.0311,VALID,193,VALID,0.860853,
2000-06-06, 01:12:00,VALID,915.4,VALID,0,VALID,85.9656,VALID,0,VALID,21.0083,VALID,183,VALID,1.37478,
2000-06-06, 01:13:00,VALID,915.407,VALID,0,VALID,86.2402,VALID,0.0509425,VALID,20.9821,VALID,186,VALID,1.68249,
2000-06-06, 01:14:00,VALID,915.415,VALID,0,VALID,86.2987,VALID,0.0509425,VALID,20.963,VALID,201,VALID,1.22183,
2000-06-06, 01:15:00,VALID,915.394,VALID,0,VALID,86.0813,VALID,0,VALID,20.9601,VALID,214,VALID,1.29205,
2000-06-06, 01:16:00,VALID,915.401,VALID,0,VALID,85.8422,VALID,0.0169808,VALID,20.973,VALID,215,VALID,1.3201,
2000-06-06, 01:17:00,VALID,915.411,VALID,0,VALID,85.4887,VALID,0.0339617,VALID,21.0217,VALID,227,VALID,1.3541,
2000-06-06, 01:18:00,VALID,915.415,VALID,0,VALID,85.4289,VALID,0.0339617,VALID,21.0637,VALID,216,VALID,1.03231,
2000-06-06, 01:19:00,VALID,915.433,VALID,0,VALID,86.1627,VALID,0,VALID,21.0532,VALID,151,VALID,0.804253,
2000-06-06, 01:20:00,VALID,915.429,VALID,0,VALID,86.6153,VALID,0.0169808,VALID,20.969,VALID,153,VALID,0.735377,
2000-06-06, 01:21:00,VALID,915.449,VALID,0,VALID,86.6866,VALID,0.0509425,VALID,20.8717,VALID,173,VALID,0.87141,
2000-06-06, 01:22:00,VALID,915.443,VALID,0,VALID,86.3597,VALID,0.0339617,VALID,20.8435,VALID,189,VALID,1.02188,
2000-06-06, 01:23:00,VALID,915.445,VALID,0,VALID,86.5505,VALID,0.0509425,VALID,20.8696,VALID,205,VALID,1.04482,
2000-06-06, 01:24:00,VALID,915.444,VALID,0,VALID,86.7501,VALID,0,VALID,20.8766,VALID,206,VALID,0.540118,
2000-06-06, 01:25:00,VALID,915.444,VALID,0,VALID,86.6878,VALID,0,VALID,20.8499,VALID,201,VALID,0.974712,
2000-06-06, 01:26:00,VALID,915.448,VALID,0,VALID,86.7756,VALID,0.0169808,VALID,20.8537,VALID,202,VALID,0.983319,
2000-06-06, 01:27:00,VALID,915.454,VALID,0,VALID,86.5085,VALID,0.0339617,VALID,20.8566,VALID,219,VALID,1.20223,
2000-06-06, 01:28:00,VALID,915.444,VALID,0,VALID,86.1436,VALID,0,VALID,20.8833,VALID,197,VALID,1.35156,
2000-06-06, 01:29:00,VALID,915.44,VALID,0,VALID,86.3076,VALID,0.0169808,VALID,20.925,VALID,197,VALID,1.08641,
2000-06-06, 01:30:00,VALID,915.43,VALID,0,VALID,86.2669,VALID,0.0169808,VALID,20.9118,VALID,192,VALID,1.04665,
2000-06-06, 01:31:00,VALID,915.403,VALID,0,VALID,86.3559,VALID,0.0169808,VALID,20.9118,VALID,185,VALID,1.24937,
2000-06-06, 01:32:00,VALID,915.413,VALID,0,VALID,86.314,VALID,0,VALID,20.8987,VALID,205,VALID,1.2046,
2000-06-06, 01:33:00,VALID,915.405,VALID,0,VALID,86.375,VALID,0.0169808,VALID,20.9118,VALID,206,VALID,0.973606,
2000-06-06, 01:34:00,VALID,915.416,VALID,0,VALID,86.5429,VALID,0.0509425,VALID,20.9148,VALID,189,VALID,0.355252,
2000-06-06, 01:35:00,VALID,915.418,VALID,0,VALID,86.7679,VALID,0.0509425,VALID,20.8954,VALID,193,VALID,0.946514,
2000-06-06, 01:36:00,VALID,915.441,VALID,0,VALID,86.9981,VALID,0,VALID,20.8599,VALID,180,VALID,0.850507,
2000-06-06, 01:37:00,VALID,915.443,VALID,0,VALID,87.4762,VALID,0.0169808,VALID,20.8214,VALID,182,VALID,0.799107,
2000-06-06, 01:38:00,VALID,915.449,VALID,0,VALID,87.9149,VALID,0,VALID,20.7731,VALID,197,VALID,0.456826,
2000-06-06, 01:39:00,VALID,915.445,VALID,0,VALID,88.0599,VALID,0.0509425,VALID,20.7013,VALID,190,VALID,1.10642,
2000-06-06, 01:40:00,VALID,915.43,VALID,0,VALID,88.1069,VALID,0.0679233,VALID,20.6814,VALID,181,VALID,0.874178,
2000-06-06, 01:41:00,VALID,915.424,VALID,0,VALID,88.065,VALID,0.0679233,VALID,20.6816,VALID,211,VALID,1.06482,
2000-06-06, 01:42:00,VALID,915.404,VALID,0,VALID,88.0001,VALID,0.0339617,VALID,20.6821,VALID,201,VALID,1.10312,
2000-06-06, 01:43:00,VALID,915.392,VALID,0,VALID,87.5258,VALID,0.0339617,VALID,20.6916,VALID,196,VALID,1.15845,
2000-06-06, 01:44:00,VALID,915.401,VALID,0,VALID,87.6466,VALID,0.0509425,VALID,20.7304,VALID,206,VALID,0.960464,
2000-06-06, 01:45:00,VALID,915.402,VALID,0,VALID,87.5195,VALID,0.0509425,VALID,20.7465,VALID,211,VALID,0.713465,
2000-06-06, 01:46:00,VALID,915.396,VALID,0,VALID,87.6364,VALID,0.0679233,VALID,20.7691,VALID,182,VALID,1.231,
2000-06-06, 01:47:00,VALID,915.403,VALID,0,VALID,87.7814,VALID,0.0509425,VALID,20.7592,VALID,193,VALID,1.17927,
2000-06-06, 01:48:00,VALID,915.401,VALID,0,VALID,87.8081,VALID,0.0679233,VALID,20.7565,VALID,188,VALID,1.32601,
2000-06-06, 01:49:00,VALID,915.416,VALID,0,VALID,88.0167,VALID,0.0849042,VALID,20.7309,VALID,219,VALID,0.937294,
2000-06-06, 01:50:00,VALID,915.412,VALID,0,VALID,87.7356,VALID,0.0509425,VALID,20.7142,VALID,219,VALID,1.6256,
2000-06-06, 01:51:00,VALID,915.405,VALID,0,VALID,87.4101,VALID,0.0509425,VALID,20.747,VALID,211,VALID,1.93454,
2000-06-06, 01:52:00,VALID,915.414,VALID,0,VALID,87.2372,VALID,0.0509425,VALID,20.785,VALID,206,VALID,1.4317,
2000-06-06, 01:53:00,VALID,915.415,VALID,0,VALID,86.9485,VALID,0.0169808,VALID,20.8074,VALID,196,VALID,1.45025,
2000-06-06, 01:54:00,VALID,915.41,VALID,0,VALID,86.9218,VALID,0,VALID,20.8375,VALID,199,VALID,1.16786,
2000-06-06, 01:55:00,VALID,915.416,VALID,0,VALID,86.7031,VALID,-0.0679233,VALID,20.8808,VALID,204,VALID,1.5625,
2000-06-06, 01:56:00,VALID,915.436,VALID,0,VALID,86.843,VALID,-0.0849042,VALID,20.9037,VALID,215,VALID,1.06693,
2000-06-06, 01:57:00,VALID,915.443,VALID,0,VALID,86.9803,VALID,-0.0679233,VALID,20.8938,VALID,204,VALID,1.15491,
2000-06-06, 01:58:00,VALID,915.46,VALID,0,VALID,87.2232,VALID,-0.0679233,VALID,20.8773,VALID,203,VALID,1.23658,
2000-06-06, 01:59:00,VALID,915.483,VALID,0,VALID,87.4317,VALID,-0.0679233,VALID,20.8418,VALID,196,VALID,0.769413,
2000-06-06, 02:00:00,VALID,915.492,VALID,0,VALID,87.564,VALID,-0.0509425,VALID,20.8022,VALID,203,VALID,1.07606,
2000-06-06, 02:01:00,VALID,915.49,VALID,0,VALID,87.7725,VALID,-0.0679233,VALID,20.7831,VALID,199,VALID,1.02682,
2000-06-06, 02:02:00,VALID,915.499,VALID,0,VALID,87.7674,VALID,-0.0509425,VALID,20.7545,VALID,199,VALID,0.629434,
2000-06-06, 02:03:00,VALID,915.497,VALID,0,VALID,87.8463,VALID,-0.0509425,VALID,20.7481,VALID,209,VALID,0.895693,
2000-06-06, 02:04:00,VALID,915.497,VALID,0,VALID,88.0446,VALID,-0.0339617,VALID,20.7252,VALID,206,VALID,0.884766,
2000-06-06, 02:05:00,VALID,915.485,VALID,0,VALID,88.2532,VALID,-0.0169808,VALID,20.7058,VALID,209,VALID,0.833333,
2000-06-06, 02:06:00,VALID,915.473,VALID,0,VALID,88.3129,VALID,-0.0679233,VALID,20.6743,VALID,212,VALID,0.866554,
2000-06-06, 02:07:00,VALID,915.453,VALID,0,VALID,88.6347,VALID,-0.0509425,VALID,20.6447,VALID,219,VALID,0.833705,
2000-06-06, 02:08:00,VALID,915.444,VALID,0,VALID,88.7733,VALID,-0.0849042,VALID,20.6153,VALID,219,VALID,1.06538,
2000-06-06, 02:09:00,VALID,915.435,VALID,0,VALID,88.9729,VALID,-0.0339617,VALID,20.5868,VALID,221,VALID,0.93391,
2000-06-06, 02:10:00,VALID,915.419,VALID,0,VALID,88.7618,VALID,-0.0169808,VALID,20.5674,VALID,221,VALID,1.08594,
2000-06-06, 02:11:00,VALID,915.409,VALID,0,VALID,89.1166,VALID,-0.0509425,VALID,20.5413,VALID,217,VALID,1.00042,
2000-06-06, 02:12:00,VALID,915.417,VALID,0,VALID,89.1497,VALID,-0.0679233,VALID,20.5122,VALID,213,VALID,1.18951,
2000-06-06, 02:13:00,VALID,915.401,VALID,0,VALID,89.1306,VALID,-0.0679233,VALID,20.4896,VALID,207,VALID,1.00661,
2000-06-06, 02:14:00,VALID,915.401,VALID,0,VALID,88.7796,VALID,-0.0339617,VALID,20.4737,VALID,195,VALID,1.04616,
2000-06-06, 02:15:00,VALID,915.401,VALID,0,VALID,88.6041,VALID,-0.0509425,VALID,20.4731,VALID,206,VALID,0.749081,
2000-06-06, 02:16:00,VALID,915.388,VALID,0,VALID,88.2214,VALID,-0.0339617,VALID,20.4896,VALID,200,VALID,0.717061,
2000-06-06, 02:17:00,VALID,915.366,VALID,0,VALID,87.5347,VALID,-0.0679233,VALID,20.5221,VALID,190,VALID,1.07052,
2000-06-06, 02:18:00,VALID,915.354,VALID,0,VALID,87.0083,VALID,-0.0169808,VALID,20.5803,VALID,174,VALID,1.03758,
2000-06-06, 02:19:00,VALID,915.349,VALID,0,VALID,86.5658,VALID,-0.0509425,VALID,20.6579,VALID,173,VALID,0.960069,
2000-06-06, 02:20:00,VALID,915.337,VALID,0,VALID,86.4691,VALID,-0.0509425,VALID,20.719,VALID,171,VALID,1.16567,
2000-06-06, 02:21:00,VALID,915.343,VALID,0,VALID,86.3254,VALID,-0.0339617,VALID,20.7443,VALID,180,VALID,1.08868,
2000-06-06, 02:22:00,VALID,915.359,VALID,0,VALID,85.8905,VALID,-0.0339617,VALID,20.7874,VALID,195,VALID,1.27121,
2000-06-06, 02:23:00,VALID,915.355,VALID,0,VALID,86.0317,VALID,-0.0849042,VALID,20.8194,VALID,182,VALID,0.666941,
2000-06-06, 02:24:00,VALID,915.344,VALID,0,VALID,85.9414,VALID,-0.0169808,VALID,20.8184,VALID,197,VALID,1.12648,
2000-06-06, 02:25:01,VALID,915.353,VALID,0,VALID,85.8486,VALID,-0.0679233,VALID,20.8356,VALID,194,VALID,1.26871,
2000-06-06, 02:26:00,VALID,915.353,VALID,0,VALID,86.1868,VALID,-0.0509425,VALID,20.8353,VALID,206,VALID,0.878801,
2000-06-06, 02:27:00,VALID,915.352,VALID,0,VALID,85.8854,VALID,-0.0679233,VALID,20.8165,VALID,199,VALID,1.28281,
2000-06-06, 02:28:00,VALID,915.347,VALID,0,VALID,86.169,VALID,-0.0339617,VALID,20.8165,VALID,196,VALID,0.893429,
2000-06-06, 02:29:00,VALID,915.332,VALID,0,VALID,86.0024,VALID,-0.0169808,VALID,20.7906,VALID,196,VALID,1.46591,
2000-06-06, 02:30:00,VALID,915.32,VALID,0,VALID,86.0088,VALID,-0.0679233,VALID,20.8189,VALID,216,VALID,0.764476,
2000-06-06, 02:31:00,VALID,915.301,VALID,0,VALID,86.2911,VALID,-0.0509425,VALID,20.8488,VALID,195,VALID,1.19848,
2000-06-06, 02:32:00,VALID,915.297,VALID,0,VALID,86.3852,VALID,-0.0169808,VALID,20.8324,VALID,220,VALID,1.36254,
2000-06-06, 02:33:00,VALID,915.278,VALID,0,VALID,85.9032,VALID,-0.101885,VALID,20.8448,VALID,234,VALID,1.52513,
2000-06-06, 02:34:00,VALID,915.266,VALID,0,VALID,85.7265,VALID,-0.0679233,VALID,20.9296,VALID,220,VALID,1.41081,
2000-06-06, 02:35:00,VALID,915.279,VALID,0,VALID,85.6057,VALID,-0.0849042,VALID,20.9646,VALID,215,VALID,1.74119,
2000-06-06, 02:36:00,VALID,915.285,VALID,0,VALID,85.612,VALID,-0.0679233,VALID,20.9783,VALID,209,VALID,1.53315,
2000-06-06, 02:37:00,VALID,915.293,VALID,0,VALID,85.7379,VALID,-0.0849042,VALID,20.9651,VALID,214,VALID,1.17701,
2000-06-06, 02:38:00,VALID,915.292,VALID,0,VALID,85.8028,VALID,-0.0509425,VALID,20.9425,VALID,217,VALID,1.30962,
2000-06-06, 02:39:00,VALID,915.286,VALID,0,VALID,85.5268,VALID,-0.0339617,VALID,20.9385,VALID,200,VALID,1.42673,
2000-06-06, 02:40:01,VALID,915.292,VALID,0,VALID,85.5993,VALID,0.0509425,VALID,20.9377,VALID,185,VALID,1.31414,
2000-06-06, 02:41:00,VALID,915.296,VALID,0,VALID,85.4963,VALID,0.0169808,VALID,20.9148,VALID,205,VALID,1.29307,
2000-06-06, 02:42:00,VALID,915.273,VALID,0,VALID,85.3793,VALID,0.0169808,VALID,20.918,VALID,203,VALID,1.08839,
2000-06-06, 02:43:01,VALID,915.275,VALID,0,VALID,85.2789,VALID,0.0169808,VALID,20.9412,VALID,210,VALID,1.26903,
2000-06-06, 02:44:00,VALID,915.258,VALID,0,VALID,85.3221,VALID,0,VALID,20.9539,VALID,191,VALID,1.40649,
2000-06-06, 02:45:00,VALID,915.261,VALID,0,VALID,85.3501,VALID,0.0679233,VALID,20.9409,VALID,205,VALID,1.52068,
2000-06-06, 02:46:00,VALID,915.247,VALID,0,VALID,85.3997,VALID,0.0509425,VALID,20.9312,VALID,208,VALID,1.32517,
2000-06-06, 02:47:00,VALID,915.25,VALID,0,VALID,85.0983,VALID,0.0169808,VALID,20.928,VALID,214,VALID,1.59333,
2000-06-06, 02:48:00,VALID,915.244,VALID,0,VALID,85.0208,VALID,0.0169808,VALID,20.9539,VALID,200,VALID,1.38492,
2000-06-06, 02:49:00,VALID,915.241,VALID,0,VALID,85.1352,VALID,0.0169808,VALID,20.9762,VALID,228,VALID,1.14497,
2000-06-06, 02:50:00,VALID,915.231,VALID,0,VALID,85.2077,VALID,0.0679233,VALID,20.9665,VALID,199,VALID,1.24459,
2000-06-06, 02:51:00,VALID,915.235,VALID,0,VALID,85.3514,VALID,0.0339617,VALID,20.9506,VALID,192,VALID,1.32095,
2000-06-06, 02:52:00,VALID,915.233,VALID,0,VALID,85.1848,VALID,0.0339617,VALID,20.9183,VALID,195,VALID,1.49955,
2000-06-06, 02:53:00,VALID,915.224,VALID,0,VALID,85.3501,VALID,0.0339617,VALID,20.8949,VALID,194,VALID,1.5514,
2000-06-06, 02:54:00,VALID,915.229,VALID,0,VALID,85.3018,VALID,0,VALID,20.8795,VALID,200,VALID,1.61571,
2000-06-06, 02:55:01,VALID,915.208,VALID,0,VALID,84.8364,VALID,0.0509425,VALID,20.8825,VALID,204,VALID,1.4928,
2000-06-06, 02:56:00,VALID,915.204,VALID,0,VALID,84.6558,VALID,0.0509425,VALID,20.9049,VALID,198,VALID,1.10241,
2000-06-06, 02:57:00,VALID,915.211,VALID,0,VALID,84.2298,VALID,0.0509425,VALID,20.9215,VALID,205,VALID,1.69219,
2000-06-06, 02:58:01,VALID,915.209,VALID,0,VALID,84.2438,VALID,0.0339617,VALID,20.9568,VALID,224,VALID,0.965144,
2000-06-06, 02:59:00,VALID,915.199,VALID,0,VALID,84.0213,VALID,0.0169808,VALID,20.9762,VALID,201,VALID,1.43679,
2000-06-06, 03:00:00,VALID,915.199,VALID,0,VALID,83.8725,VALID,0.0169808,VALID,20.9929,VALID,222,VALID,1.70657,
2000-06-06, 03:01:00,VALID,915.191,VALID,0,VALID,83.5724,VALID,0.0169808,VALID,21.0247,VALID,202,VALID,1.7443,
2000-06-06, 03:02:00,VALID,915.18,VALID,0,VALID,83.6779,VALID,0,VALID,21.0767,VALID,209,VALID,1.27956,
2000-06-06, 03:03:00,VALID,915.179,VALID,0,VALID,83.669,VALID,0,VALID,21.1055,VALID,186,VALID,1.34649,
2000-06-06, 03:04:00,VALID,915.169,VALID,0,VALID,83.5012,VALID,0.0169808,VALID,21.1022,VALID,211,VALID,1.46202,
2000-06-06, 03:05:00,VALID,915.15,VALID,0,VALID,82.9379,VALID,0.0509425,VALID,21.1276,VALID,202,VALID,1.82292,
2000-06-06, 03:06:00,VALID,915.128,VALID,0,VALID,82.7344,VALID,0,VALID,21.1898,VALID,196,VALID,1.57411,
2000-06-06, 03:07:00,VALID,915.117,VALID,0,VALID,82.6212,VALID,0.0509425,VALID,21.2447,VALID,201,VALID,1.58996,
2000-06-06, 03:08:00,VALID,915.115,VALID,0,VALID,82.8997,VALID,0.0339617,VALID,21.2576,VALID,190,VALID,1.28207,
2000-06-06, 03:09:00,VALID,915.109,VALID,0,VALID,82.7853,VALID,-0.0339617,VALID,21.242,VALID,194,VALID,1.44088,
2000-06-06, 03:10:01,VALID,915.106,VALID,0,VALID,82.7726,VALID,-0.0679233,VALID,21.2329,VALID,179,VALID,1.36184,
2000-06-06, 03:11:00,VALID,915.101,VALID,0,VALID,82.8654,VALID,-0.0849042,VALID,21.2337,VALID,181,VALID,1.17293,
2000-06-06, 03:12:00,VALID,915.091,VALID,0,VALID,83.1248,VALID,-0.101885,VALID,21.2075,VALID,180,VALID,1.16808,
2000-06-06, 03:13:01,VALID,915.08,VALID,0,VALID,83.3982,VALID,-0.0679233,VALID,21.1561,VALID,194,VALID,1.15946,
2000-06-06, 03:14:00,VALID,915.066,VALID,0,VALID,83.2024,VALID,-0.0849042,VALID,21.1332,VALID,189,VALID,1.67543,
2000-06-06, 03:15:00,VALID,915.061,VALID,0,VALID,82.8883,VALID,-0.0679233,VALID,21.1585,VALID,188,VALID,1.78929,
2000-06-06, 03:16:00,VALID,915.033,VALID,0,VALID,82.9938,VALID,-0.0849042,VALID,21.2143,VALID,216,VALID,1.12859,
2000-06-06, 03:17:00,VALID,915.042,VALID,0,VALID,83.018,VALID,-0.0509425,VALID,21.214,VALID,195,VALID,1.81292,
2000-06-06, 03:18:00,VALID,915.049,VALID,0,VALID,83.2812,VALID,-0.0679233,VALID,21.2199,VALID,196,VALID,1.29709,
2000-06-06, 03:19:00,VALID,915.044,VALID,0,VALID,83.299,VALID,-0.0679233,VALID,21.2,VALID,196,VALID,1.63802,
2000-06-06, 03:20:00,VALID,915.059,VALID,0,VALID,83.6131,VALID,-0.0679233,VALID,21.1941,VALID,187,VALID,1.5641,
2000-06-06, 03:21:00,VALID,915.073,VALID,0,VALID,83.7848,VALID,-0.0849042,VALID,21.1553,VALID,195,VALID,1.51964,
2000-06-06, 03:22:00,VALID,915.074,VALID,0,VALID,83.4859,VALID,-0.0849042,VALID,21.1359,VALID,201,VALID,1.64665,
2000-06-06, 03:23:00,VALID,915.083,VALID,0,VALID,82.2347,VALID,-0.0849042,VALID,21.1744,VALID,213,VALID,2.17866,
2000-06-06, 03:24:00,VALID,915.08,VALID,0,VALID,81.6815,VALID,-0.0509425,VALID,21.3269,VALID,215,VALID,1.59649,
2000-06-06, 03:25:01,VALID,915.081,VALID,0,VALID,81.7922,VALID,-0.0679233,VALID,21.4238,VALID,197,VALID,1.5185,
2000-06-06, 03:26:00,VALID,915.111,VALID,0,VALID,81.7858,VALID,-0.0679233,VALID,21.4397,VALID,197,VALID,1.81123,
2000-06-06, 03:27:00,VALID,915.108,VALID,0,VALID,81.7235,VALID,-0.0679233,VALID,21.4295,VALID,207,VALID,1.54955,
2000-06-06, 03:28:01,VALID,915.109,VALID,0,VALID,81.8265,VALID,-0.0679233,VALID,21.4397,VALID,208,VALID,1.65104,
2000-06-06, 03:29:00,VALID,915.111,VALID,0,VALID,82.2105,VALID,-0.0849042,VALID,21.4338,VALID,192,VALID,1.42401,
2000-06-06, 03:30:00,VALID,915.127,VALID,0,VALID,82.0579,VALID,-0.0339617,VALID,21.3883,VALID,207,VALID,1.59926,
2000-06-06, 03:31:00,VALID,915.129,VALID,0,VALID,82.2016,VALID,-0.0679233,VALID,21.3721,VALID,181,VALID,1.93771,